COSMOS 1275 DEB, 12695

Orbit data source: Space-Track

COSMOS 1275 DEB, 12695 is space debris in LEO originally from a launch on Thu, 04 Jun 1981 UTC launched from the Plesetsk Missile And Space Complex (PKMTR). Debris objects in space refer to the collection of defunct objects orbiting the Earth. Examples of debris include non-operational satellites, rocket bodies, and fragments generated from explosions, collisions, or faulty payload assembly.

Loading next visibility...
Identifier
12695, 1981-053AP
Orbit
LEO
Country
Flag of CISCIS
Related business
Manufacturer
Unknown
Mission
Spacecraft
Bus & Motor
Unknown
Mass
Unknown
Launch date (UTC)
1981-06-04 (45 years ago)
Launch vehicle
Unknown
Launch site
Plesetsk Missile And Space Complex (PKMTR)
Object type
Payload
Rocket body
Debris
Shape & HBR
Unknown shape, 0.1 m
Radar Cross Section
Medium (>0.1 m² and <1 m²)

Expand to show TLE details & history
Last TLE update: 1 day ago

TLE from 1 day ago
0 COSMOS 1275 DEB
1 12695U 81053AP  26163.27854391  .00001552  00000-0  15534-2 0  9990
2 12695  83.0105 265.3349 0106642  49.0159  10.5380 13.74700704228407
Epoch: 2026-06-12T06:41Z
TLE epoch observation values (Epoch: 2026-06-12T06:41:06.193Z)
Latitude
59.1526°
Longitude
-83.76868°
Altitude
915.606 km
Speed
7.438 km/s
True Right ascension
18h 28m 28s
True Declination
59° 00' 15"
Sunlit
Object was in daylight at epoch
Visualization orbit readout
Latitude
Unknown
Longitude
Unknown
Altitude
Unknown
Speed
Unknown
Apparent Right ascension
Unknown
Apparent Declination
Unknown
Sunlit
N/A
Visualization observer readout
Local Sidereal Time
19:10:48
Azimuth
Unknown
Elevation
Unknown
Doppler factor
Unknown
Orbital elements
Apogee altitude
1,058.357 km
Perigee altitude
901.422 km
Semi-major axis
7,358.026 km
Eccentricity
0.01066
Inclination
83.0105°
RAAN
265.3349°
Arg. of periapsis
49.0159°
True anomaly
10.76446°
Mean anomaly
10.538°
Eccentric anomaly
10.65093°
Mean motion
3.43875 °/min
Orbital period
104.69 mins
BSTAR
0.0015534
Loading maneuver chart data...
Computing Atmospheric mass density...
Loading historical data...
Loading historical data...
Loading historical data...
Loading historical data...
Loading historical data...
Loading historical data...
Loading historical data...

Documentation

Showing up to 5 results
|